When you browse on this site, cookies collect data to enhance your experience and personalize the content and advertising you see.
Visit our Privacy Policy to learn more. By continuing to use the site, you agree to this use of cookies and data.
  • In Netherlands
  • List of Countries
  • For 7 days
  • Water Temperature
  • Satellite Maps
  • Weather Map
  • Weather Widgets
  • user-avatar
    Login

    Hourly Weather Wiktoria

    Today, 18 June, Tuesday

    Time Temperature Precipitation Wind Pressure Humidity
    00:00 +7°C° 0 mm 2 mps 753 mmHg 89%
    01:00 +7°C° 0 mm 3 mps 753 mmHg 90%
    02:00 +7°C° 0 mm 3 mps 753 mmHg 90%
    03:00 +5°C° 0 mm 3 mps 753 mmHg 91%
    04:00 +6°C° 0 mm 4 mps 752 mmHg 92%
    05:00 +6°C° 0 mm 4 mps 752 mmHg 90%
    06:00 +6°C° 0 mm 4 mps 752 mmHg 88%
    07:00 +7°C° 0 mm 4 mps 752 mmHg 85%
    08:00 +7°C° 0.1 mm 4 mps 752 mmHg 84%
    09:00 +8°C° 0.1 mm 4 mps 752 mmHg 83%
    10:00 +9°C° 0 mm 3 mps 752 mmHg 79%
    11:00 +10°C° 0.2 mm 3 mps 752 mmHg 82%
    12:00 +10°C° 0.2 mm 3 mps 752 mmHg 85%
    13:00 +10°C° 0.2 mm 3 mps 752 mmHg 88%
    14:00 +10°C° 0.3 mm 3 mps 752 mmHg 86%
    15:00 +10°C° 0.3 mm 3 mps 752 mmHg 85%
    16:00 +10°C° 0.3 mm 3 mps 752 mmHg 84%
    17:00 +9°C° 0.2 mm 3 mps 753 mmHg 86%
    18:00 +7°C° 0.2 mm 3 mps 753 mmHg 89%
    19:00 +5°C° 0.2 mm 3 mps 754 mmHg 91%
    20:00 +4°C° 0 mm 3 mps 754 mmHg 92%
    21:00 +4°C° 0 mm 3 mps 754 mmHg 93%
    22:00 +3°C° 0 mm 3 mps 755 mmHg 94%
    23:00 +3°C° 0 mm 3 mps 755 mmHg 93%

    Tomorrow, 19 June, Wednesday

    Time Temperature Precipitation Wind Pressure Humidity
    00:00 +3°C° 0 mm 3 mps 755 mmHg 93%
    01:00 +2°C° 0 mm 3 mps 755 mmHg 93%
    02:00 +2°C° 0 mm 3 mps 755 mmHg 93%
    03:00 +2°C° 0 mm 3 mps 755 mmHg 93%
    04:00 +3°C° 0 mm 2 mps 755 mmHg 94%
    05:00 +3°C° 0 mm 2 mps 756 mmHg 94%
    06:00 +2°C° 0 mm 2 mps 756 mmHg 93%
    07:00 +2°C° 0 mm 2 mps 757 mmHg 93%
    08:00 +4°C° 0 mm 2 mps 757 mmHg 90%
    09:00 +5°C° 0 mm 2 mps 757 mmHg 86%
    10:00 +7°C° 0 mm 2 mps 757 mmHg 82%
    11:00 +8°C° 0 mm 3 mps 757 mmHg 76%
    12:00 +8°C° 0 mm 4 mps 757 mmHg 71%
    13:00 +11°C° 0 mm 4 mps 757 mmHg 65%
    14:00 +10°C° 0 mm 4 mps 756 mmHg 66%
    15:00 +10°C° 0 mm 4 mps 756 mmHg 68%
    16:00 +8°C° 0 mm 4 mps 756 mmHg 69%
    17:00 +8°C° 0 mm 3 mps 756 mmHg 75%
    18:00 +5°C° 0 mm 3 mps 757 mmHg 80%
    19:00 +4°C° 0 mm 3 mps 757 mmHg 86%
    20:00 +3°C° 0 mm 3 mps 757 mmHg 87%
    21:00 +3°C° 0 mm 3 mps 757 mmHg 88%
    22:00 +2°C° 0 mm 3 mps 757 mmHg 89%
    23:00 +2°C° 0 mm 3 mps 757 mmHg 90%

    Day after tomorrow, 20 June, Thursday

    Time Temperature Precipitation Wind Pressure Humidity
    00:00 +3°C° 0 mm 2 mps 757 mmHg 91%
    01:00 +2°C° 0 mm 2 mps 757 mmHg 91%
    02:00 +2°C° 0 mm 2 mps 756 mmHg 91%
    03:00 +2°C° 0 mm 2 mps 756 mmHg 91%
    04:00 +1°C° 0 mm 2 mps 756 mmHg 91%
    05:00 +2°C° 0 mm 1 mps 756 mmHg 90%
    06:00 +2°C° 0 mm 1 mps 757 mmHg 90%
    07:00 +2°C° 0 mm 1 mps 757 mmHg 90%
    08:00 +3°C° 0 mm 1 mps 757 mmHg 83%
    09:00 +4°C° 0 mm 0 mps 757 mmHg 77%
    10:00 +6°C° 0 mm 0 mps 757 mmHg 71%
    11:00 +7°C° 0 mm 0 mps 756 mmHg 68%
    12:00 +9°C° 0 mm 1 mps 756 mmHg 65%
    13:00 +10°C° 0 mm 1 mps 756 mmHg 61%
    14:00 +10°C° 0 mm 1 mps 755 mmHg 64%
    15:00 +10°C° 0 mm 1 mps 755 mmHg 67%
    16:00 +10°C° 0 mm 1 mps 755 mmHg 70%
    17:00 +8°C° 0 mm 1 mps 755 mmHg 76%
    18:00 +6°C° 0 mm 2 mps 756 mmHg 81%
    19:00 +4°C° 0 mm 2 mps 756 mmHg 86%
    20:00 +4°C° 0 mm 2 mps 756 mmHg 88%
    21:00 +3°C° 0 mm 2 mps 757 mmHg 90%
    22:00 +3°C° 0 mm 2 mps 757 mmHg 92%
    23:00 +2°C° 0 mm 2 mps 757 mmHg 92%

    21 June, Friday

    Time Temperature Precipitation Wind Pressure Humidity
    00:00 +2°C° 0 mm 2 mps 757 mmHg 92%
    01:00 +2°C° 0 mm 2 mps 757 mmHg 92%
    02:00 +2°C° 0 mm 2 mps 757 mmHg 92%
    03:00 +2°C° 0 mm 2 mps 757 mmHg 91%
    04:00 +2°C° 0 mm 2 mps 757 mmHg 91%
    05:00 +2°C° 0 mm 2 mps 757 mmHg 92%
    06:00 +2°C° 0 mm 2 mps 758 mmHg 92%
    07:00 +2°C° 0 mm 2 mps 758 mmHg 92%
    08:00 +3°C° 0 mm 3 mps 758 mmHg 88%
    09:00 +4°C° 0 mm 3 mps 758 mmHg 83%
    10:00 +7°C° 0 mm 3 mps 758 mmHg 78%
    11:00 +8°C° 0 mm 3 mps 758 mmHg 73%
    12:00 +10°C° 0 mm 4 mps 758 mmHg 67%
    13:00 +11°C° 0 mm 4 mps 758 mmHg 62%
    14:00 +11°C° 0 mm 4 mps 758 mmHg 63%
    15:00 +11°C° 0 mm 4 mps 758 mmHg 64%
    16:00 +11°C° 0 mm 3 mps 758 mmHg 65%
    17:00 +9°C° 0 mm 3 mps 758 mmHg 71%
    18:00 +7°C° 0 mm 3 mps 759 mmHg 78%
    19:00 +4°C° 0 mm 4 mps 759 mmHg 84%
    20:00 +4°C° 0 mm 3 mps 759 mmHg 86%
    21:00 +3°C° 0 mm 3 mps 760 mmHg 88%
    22:00 +3°C° 0 mm 3 mps 760 mmHg 90%
    23:00 +2°C° 0 mm 3 mps 760 mmHg 90%

    22 June, Saturday

    Time Temperature Precipitation Wind Pressure Humidity
    00:00 +2°C° 0 mm 3 mps 760 mmHg 90%
    01:00 +3°C° 0 mm 2 mps 760 mmHg 90%
    02:00 +2°C° 0 mm 2 mps 760 mmHg 90%
    03:00 +2°C° 0 mm 2 mps 760 mmHg 90%
    04:00 +2°C° 0 mm 2 mps 760 mmHg 90%
    05:00 +2°C° 0 mm 2 mps 760 mmHg 89%
    06:00 +1°C° 0 mm 2 mps 760 mmHg 89%
    07:00 +1°C° 0 mm 2 mps 761 mmHg 89%
    08:00 +4°C° 0 mm 1 mps 761 mmHg 82%
    09:00 +6°C° 0 mm 1 mps 761 mmHg 75%
    10:00 +7°C° 0 mm 1 mps 761 mmHg 68%
    11:00 +9°C° 0 mm 1 mps 760 mmHg 64%
    12:00 +9°C° 0 mm 0 mps 760 mmHg 60%
    13:00 +10°C° 0 mm 0 mps 760 mmHg 56%
    14:00 +10°C° 0 mm 0 mps 760 mmHg 59%
    15:00 +11°C° 0 mm 1 mps 760 mmHg 62%
    16:00 +11°C° 0 mm 1 mps 759 mmHg 65%
    17:00 +9°C° 0 mm 1 mps 760 mmHg 69%
    18:00 +7°C° 0 mm 1 mps 760 mmHg 72%
    19:00 +6°C° 0 mm 1 mps 760 mmHg 76%
    20:00 +4°C° 0 mm 2 mps 760 mmHg 79%
    21:00 +4°C° 0 mm 2 mps 761 mmHg 82%
    22:00 +3°C° 0 mm 2 mps 761 mmHg 85%
    23:00 +3°C° 0 mm 2 mps 761 mmHg 85%

    23 June, Sunday

    Time Temperature Precipitation Wind Pressure Humidity
    00:00 +3°C° 0 mm 2 mps 760 mmHg 85%
    01:00 +2°C° 0 mm 2 mps 760 mmHg 85%
    02:00 +2°C° 0 mm 2 mps 760 mmHg 85%
    03:00 +3°C° 0 mm 1 mps 760 mmHg 86%
    04:00 +3°C° 0 mm 1 mps 760 mmHg 86%
    05:00 +2°C° 0 mm 1 mps 760 mmHg 86%
    06:00 +2°C° 0 mm 1 mps 761 mmHg 86%
    07:00 +2°C° 0 mm 1 mps 761 mmHg 85%
    08:00 +4°C° 0 mm 1 mps 761 mmHg 78%
    09:00 +6°C° 0 mm 1 mps 761 mmHg 71%
    10:00 +8°C° 0 mm 1 mps 761 mmHg 64%
    11:00 +9°C° 0 mm 1 mps 761 mmHg 61%
    12:00 +11°C° 0 mm 1 mps 761 mmHg 57%
    13:00 +12°C° 0 mm 1 mps 760 mmHg 54%
    14:00 +12°C° 0 mm 2 mps 760 mmHg 58%
    15:00 +12°C° 0 mm 2 mps 760 mmHg 61%
    16:00 +12°C° 0 mm 2 mps 760 mmHg 65%
    17:00 +9°C° 0 mm 2 mps 760 mmHg 68%
    18:00 +7°C° 0 mm 2 mps 761 mmHg 71%
    19:00 +5°C° 0 mm 2 mps 761 mmHg 73%
    20:00 +5°C° 0 mm 2 mps 761 mmHg 75%
    21:00 +4°C° 0 mm 2 mps 761 mmHg 76%
    22:00 +4°C° 0 mm 2 mps 762 mmHg 77%
    23:00 +3°C° 0 mm 2 mps 762 mmHg 79%
    Show more